Regional Weather Roundup
Issued by NWS

Home | Current Version | Previous Version | Graphics & Text | Print | Product List | Glossary On
Versions: 1 2 3 4 5 6 7 8 9 10 11 12 13 14 15 16 17 18 19 20 21 22 23 24 25 26 27 28 29 30 31 32 33 34 35 36 37 38 39 40 41 42 43 44 45 46 47 48 49 50
000
ASUS43 KTOP 232059
RWRKS

WEATHER ROUNDUP FOR KANSAS
NATIONAL WEATHER SERVICE GOODLAND KS
400 PM CDT THU MAR 23 2017

NOTE:  "FAIR" INDICATES FEW OR NO CLOUDS BELOW 12,000 FEET WITH NO
SIGNIFICANT WEATHER AND/OR OBSTRUCTIONS TO VISIBILITY.

KSZ001>006-013>018-027>032-041>047-232200-
NORTHWEST KANSAS

CITY           SKY/WX    TMP DP  RH WIND       PRES   REMARKS
GOODLAND       SUNNY     84  35  17 S13G25    29.54F
HAYS             N/A     83  53  35 S35G43    29.58F
HILL CITY      SUNNY     84  56  38 S23G35    29.58F
RUSSELL        SUNNY     81  55  40 S29G36    29.62F
$$

KSZ061>065-074>080-084>089-232200-
SOUTHWEST KANSAS

CITY           SKY/WX    TMP DP  RH WIND       PRES   REMARKS
DODGE CITY     CLOUDY    84  49  29 S26G39    29.63F HAZE
ELKHART          N/A     83  41  22 S15         N/A
GARDEN CITY    SUNNY     80  51  36 S26G35    29.61F
GREAT BEND     SUNNY     83  56  39 S32G46    29.62F
LIBERAL        SUNNY     86  50  28 S30G36    29.63F
$$

KSZ066>073-081>083-090>101-232200-
SOUTHEAST KANSAS

CITY           SKY/WX    TMP DP  RH WIND       PRES   REMARKS
CHANUTE        SUNNY     78  46  32 S28G37    29.86F
COFFEYVILLE    SUNNY     77  52  41 S22G30    29.88F
HUTCHINSON     MOSUNNY   75  59  57 S35G43    29.72F
MEDICINE LODGE   N/A     80  55  42 S24G38    29.70F
NEWTON         SUNNY     75  57  53 S28G39    29.76F
PARSONS        SUNNY     77  49  37 S15G25    29.88F
WICHITA INTL   MOSUNNY   78  57  48 S30G41    29.76F
WICHITA JABRA  SUNNY     78  56  46 S26G39    29.76F
WINFIELD       SUNNY     80  53  39 S22G38    29.80F
$$

KSZ007>012-019>026-033>040-048>060-102>105-232200-
NORTHEAST KANSAS

CITY           SKY/WX    TMP DP  RH WIND       PRES   REMARKS
CONCORDIA      MOSUNNY   69  57  65 S24G33    29.69F
EMPORIA        SUNNY     76  54  46 S26G37    29.78F
LAWRENCE       SUNNY     80  53  39 S23G35    29.77F
MANHATTAN      CLOUDY    75  54  47 S20G33    29.73F
OLATHE IND     SUNNY     79  52  38 S23G38    29.81F
OLATHE EXE     SUNNY     78  52  40 S26G35    29.81F
SALINA         MOSUNNY   75  58  55 S20G36    29.70F
TOPEKA BILLARD SUNNY     80  55  42 S25       29.76F
TOPEKA FORBES  SUNNY     81  54  39 S24G35    29.77F
$$




USA.gov is the U.S. government's official web portal to all federal, state and local government web resources and services.